This is the latest recevied weather packets stored in our database for station/object IW1QLH-13. If no packets are shown the sender has not sent any weather packets the latest 10 day(s).
| Time | Temp. | Humidity | Pressure | Rain* | Wind** | Luminosity | Snow |
|---|---|---|---|---|---|---|---|
| 1777511866 | 17.78° C | 47% | 1008.2 hPa | - | - | 14 W/m² | - |
| 1777511236 | 18.89° C | 48% | 1008.3 hPa | - | - | 14 W/m² | - |
| 1777510608 | 18.89° C | 46% | 1008.3 hPa | - | - | - | - |
| 1777509979 | 18.89° C | 51% | 1008.4 hPa | - | - | 14 W/m² | - |
| 1777509348 | 18.89° C | 50% | 1008.3 hPa | - | - | - | - |
| 1777508718 | 18.89° C | 52% | 1008.5 hPa | - | - | 14 W/m² | - |
| 1777508089 | 18.89° C | 56% | 1008.4 hPa | - | - | 14 W/m² | - |
| 1777507460 | 18.89° C | 56% | 1008.2 hPa | - | - | - | - |
| 1777506831 | 17.78° C | 62% | 1008.3 hPa | - | - | 14 W/m² | - |
| 1777506202 | 16.67° C | 67% | 1008.2 hPa | - | - | 14 W/m² | - |
| 1777505570 | 16.67° C | 68% | 1008.3 hPa | - | - | 14 W/m² | - |
| 1777504940 | 16.67° C | 67% | 1008.3 hPa | - | - | - | - |
| 1777504311 | 16.67° C | 65% | 1008.3 hPa | - | - | - | - |
| 1777503620 | 17.78° C | 63% | 1008.2 hPa | - | - | 14 W/m² | - |
| 1777502991 | 16.67° C | 68% | 1008.3 hPa | - | - | 14 W/m² | - |
| 1777502362 | 15.56° C | 71% | 1008.4 hPa | - | - | 14 W/m² | - |
| 1777501732 | 15.56° C | 72% | 1008.4 hPa | - | - | - | - |
| 1777501103 | 15.56° C | 71% | 1008.3 hPa | - | - | 14 W/m² | - |
| 1777500474 | 15.56° C | 70% | 1008.1 hPa | - | - | - | - |
| 1777499845 | 15.56° C | 69% | 1008.1 hPa | - | - | 14 W/m² | - |
| 1777499216 | 15.56° C | 68% | 1008.1 hPa | - | - | 14 W/m² | - |
| 1777498586 | 15.56° C | 66% | 1008 hPa | - | - | 14 W/m² | - |
| 1777497957 | 15.56° C | 66% | 1008 hPa | - | - | - | - |
| 1777497264 | 15.56° C | 66% | 1008 hPa | - | - | 14 W/m² | - |
| 1777496635 | 15.56° C | 64% | 1007.9 hPa | - | - | 14 W/m² | - |
* Rain since midnight (hover to see other rain measurements)
** Current wind speed in m/s (hover to see current wind gust speed)